STARLINK-11177, 60118

Orbit data source: Space-Track

STARLINK-11177, 60118 is a payload satellite owned by SpaceX/Seattle (US) in LEO that was launched on Mon, 24 Jun 2024 UTC via an FALCON 9 launch vehicle from the Air Force Western Test Range (AFWTR). Payload-class satellites include a variety of spacecraft equipped with specific instruments for various scientific and technological missions. These include communications satellites like Starlink; space stations such as the ISS; scientific satellites like the Hubble; Earth observation satellites from companies like Planet Labs, Umbra, and HawkEye 360; GPS; miniature CubeSats for education and research; and military/defense satellites.

Loading next visibility...
Identifier
60118, 2024-118F
Orbit
LEO
Last TLE update
15 hours ago
Origin
Manufacturer
SpaceX/Seattle
Mission
Operational Commercial Communications
Bus & Motor
STARLINK V2M, Unknown motor
Mass
730 kg wet, ~700 kg dry
Launch date (UTC)
2024-06-24 (1 year ago)
Launch vehicle
FALCON 9
Launch site
Air Force Western Test Range (AFWTR)
Object type
Payload
Rocket body
Debris
Shape & HBR
Box + 2 Pan, 29 m
Radar Cross Section
36.964 m², Large (>1 m²)

Expand to show TLE details & history

TLE from 15 hours ago
0 STARLINK-11177
1 60118U 24118F   25181.81865039 -.00000757  00000-0 -13977-5 0  9992
2 60118  53.1595  22.9290 0000780  92.2555 267.8552 15.69709280 58435
Epoch: 2025-06-30T19:38Z
TLE epoch observation values (Epoch: 2025-06-30T19:38:51.393Z)
Latitude
-0.00005°
Longitude
169.09183°
Altitude
360.664 km
Speed
7.694 km/s
True Right ascension
01h 31m 42s
True Declination
0° 00' 00"
Sunlit
Object was in daylight at epoch
Visualization orbit readout
Latitude
-4.54689°
Longitude
-10.49896°
Altitude
361.359 km
Speed
7.693 km/s
Apparent Right ascension
12h 00m 30s
Apparent Declination
-24° 04' 54"
Sunlit
Object is in daylight
Visualization observer readout
Local Sidereal Time
21:49:38
Azimuth
290.032° WNW
Elevation
-58.316°
Doppler factor
1
Orbital elements
Apogee altitude
360.515 km
Perigee altitude
359.464 km
Semi-major axis
6,738.127 km
Eccentricity
0.00008
Inclination
53.1595°
RAAN
22.929°
Arg. of periapsis
92.2555°
True anomaly
Unknown
Mean anomaly
267.8552°
Eccentric anomaly
Unknown
Mean motion
3.92405 °/min
Orbital period
91.74 mins
BSTAR
-0.0000013977
Loading maneuver chart data...
Loading SW <> Apogee altitude chart data...
Loading historical data...
Loading historical data...
Loading historical data...
Loading historical data...
Loading historical data...
Loading historical data...
Loading historical data...

STARLINK-11177 Visibility forecast

Observer location: undefined°, undefined°

Span
Click to sort rows by Start time (UTC) header in descending order
Start Az.
Max El. time (UTC)
Max El. Az.
Max El.
End time (UTC)
End Az.
4 mins2025-07-01 15:41:14.038Z201.12° SSW2025-07-01 15:43:14.038Z138.724° SSE33.028°2025-07-01 15:45:14.038Z70.292° E
|